Weather History for Ely, MN

Change the Weather History Date:

Tuesday, September 6, 2011

  Actual Average Record
Temperature  
Mean Temperature 53 °F -  
Max Temperature 71 °F 69 °F 82 °F (1996)
Min Temperature 35 °F 48 °F 33 °F (2010)
Degree Days  
Heating Degree Days 12    
Growing Degree Days 3 (Base 50)    
Moisture  
Dew Point 43 °F    
Average Humidity 67    
Maximum Humidity 100    
Minimum Humidity 41    
Precipitation  
Precipitation 0.00 in - - ()
Sea Level Pressure  
Sea Level Pressure 30.16 in    
Wind  
Wind Speed 4 mph (SSW)    
Max Wind Speed 12 mph    
Max Gust Speed 16 mph    
Visibility 10 miles    
Events      
Averages and records for this station are not official NWS values.
T = Trace of Precipitation, MM = Missing Value Source: NWS Daily Summary

Daily Weather History Graph

Daily Weather History Graph

Search for Another Location

Airport:

Trip Planner

Search our weather history database for the weather conditions in past years. The results will help you decide how hot, cold, wet, or windy it might be!

Date:

Astronomy

Sep. 06, 2011 Rise Set
Actual Time 6:32 AM CDT 7:38 PM CDT
Civil Twilight 6:00 AM CDT 8:10 PM CDT
Nautical Twilight 5:22 AM CDT 8:48 PM CDT
Astronomical Twilight 4:41 AM CDT 9:28 PM CDT
Moon 4:33 PM CDT (9/6) 12:26 AM CDT (9/6)
Length of Visible Light 14h 09m
Length of Day
13h 06m
Waxing Gibbous, 71% of the Moon is Illuminated
Sep 6
Waxing Gibbous
Sep 12
Full
Sep 20
Last Quarter
Sep 27
New
Oct 3
First Quarter

Hourly Weather History & Observations

Time (CDT) Temp. Windchill Dew Point Humidity Pressure Visibility Wind Dir Wind Speed Gust Speed Precip Events Conditions
12:13 AM 46.4 °F 44.3 °F 41.0 °F 81% 30.15 in 10.0 mi SSE 4.6 mph - N/A   Clear
12:32 AM 46.4 °F 43.5 °F 41.0 °F 81% 30.15 in 10.0 mi SSE 5.8 mph - N/A   Clear
12:52 AM 46.4 °F 45.2 °F 41.0 °F 81% 30.15 in 10.0 mi SSE 3.5 mph - N/A   Clear
1:13 AM 42.8 °F - 39.2 °F 87% 30.15 in 10.0 mi Calm Calm - N/A   Clear
1:32 AM 41.0 °F - 39.2 °F 93% 30.15 in 10.0 mi Calm Calm - N/A   Clear
1:53 AM 39.2 °F 37.0 °F 37.4 °F 93% 30.15 in 10.0 mi SE 3.5 mph - N/A   Clear
2:12 AM 41.0 °F - 39.2 °F 93% 30.15 in 10.0 mi Calm Calm - N/A   Scattered Clouds
2:32 AM 39.2 °F - 37.4 °F 93% 30.15 in 10.0 mi Calm Calm - N/A   Scattered Clouds
2:53 AM 39.2 °F - 37.4 °F 93% 30.16 in 10.0 mi Calm Calm - N/A   Scattered Clouds
3:13 AM 39.2 °F - 37.4 °F 93% 30.16 in 10.0 mi Calm Calm - N/A   Scattered Clouds
3:32 AM 39.2 °F - 37.4 °F 93% 30.16 in 10.0 mi Calm Calm - N/A   Scattered Clouds
3:53 AM 37.4 °F - 35.6 °F 93% 30.16 in 10.0 mi Calm Calm - N/A   Mostly Cloudy
4:12 AM 39.2 °F - 37.4 °F 93% 30.16 in 10.0 mi Calm Calm - N/A   Mostly Cloudy
4:33 AM 39.2 °F - 37.4 °F 93% 30.16 in 10.0 mi Calm Calm - N/A   Mostly Cloudy
4:53 AM 37.4 °F - 35.6 °F 93% 30.16 in 10.0 mi Calm Calm - N/A   Scattered Clouds
5:12 AM 37.4 °F - 37.4 °F 100% 30.16 in 10.0 mi Calm Calm - N/A   Clear
5:33 AM 39.2 °F - 37.4 °F 93% 30.17 in 10.0 mi Calm Calm - N/A   Clear
5:53 AM 37.4 °F - 35.6 °F 93% 30.17 in 10.0 mi Calm Calm - N/A   Clear
6:12 AM 35.6 °F - 35.6 °F 100% 30.17 in 10.0 mi Calm Calm - N/A   Scattered Clouds
6:33 AM 37.4 °F - 35.6 °F 93% 30.17 in 10.0 mi Calm Calm - N/A   Scattered Clouds
6:53 AM 35.6 °F - 33.8 °F 93% 30.17 in 10.0 mi Calm Calm - N/A   Clear
7:12 AM 37.4 °F - 35.6 °F 93% 30.18 in 10.0 mi Calm Calm - N/A   Clear
7:33 AM 39.2 °F - 37.4 °F 93% 30.18 in 10.0 mi Calm Calm - N/A   Clear
7:52 AM 42.8 °F - 39.2 °F 87% 30.19 in 10.0 mi Calm Calm - N/A   Clear
8:12 AM 46.4 °F - 44.6 °F 93% 30.18 in 10.0 mi Calm Calm - N/A   Clear
8:33 AM 53.6 °F - 46.4 °F 77% 30.18 in 10.0 mi SSW 4.6 mph - N/A   Clear
8:52 AM 55.4 °F - 46.4 °F 72% 30.18 in 10.0 mi South 5.8 mph - N/A   Clear
9:12 AM 57.2 °F - 46.4 °F 67% 30.18 in 10.0 mi SSW 5.8 mph - N/A   Clear
9:33 AM 60.8 °F - 46.4 °F 59% 30.18 in 10.0 mi South 5.8 mph - N/A   Clear
9:52 AM 60.8 °F - 46.4 °F 59% 30.18 in 10.0 mi SSW 4.6 mph - N/A   Clear
10:12 AM 62.6 °F - 46.4 °F 55% 30.18 in 10.0 mi SSW 10.4 mph - N/A   Clear
10:33 AM 62.6 °F - 46.4 °F 55% 30.18 in 10.0 mi SSW 8.1 mph - N/A   Clear
10:52 AM 64.4 °F - 46.4 °F 52% 30.18 in 10.0 mi SW 6.9 mph - N/A   Clear
11:12 AM 64.4 °F - 46.4 °F 52% 30.17 in 10.0 mi SSW 6.9 mph - N/A   Clear
11:33 AM 66.2 °F - 46.4 °F 49% 30.17 in 10.0 mi SW 8.1 mph - N/A   Clear
11:53 AM 66.2 °F - 46.4 °F 49% 30.17 in 10.0 mi SW 8.1 mph - N/A   Scattered Clouds
12:12 PM 68.0 °F - 46.4 °F 46% 30.18 in 10.0 mi SSW 9.2 mph - N/A   Clear
12:33 PM 68.0 °F - 46.4 °F 46% 30.17 in 10.0 mi SW 9.2 mph - N/A   Clear
12:52 PM 68.0 °F - 46.4 °F 46% 30.17 in 10.0 mi SSW 4.6 mph - N/A   Clear
1:13 PM 69.8 °F - 46.4 °F 43% 30.17 in 10.0 mi South 6.9 mph - N/A   Clear
1:33 PM 69.8 °F - 46.4 °F 43% 30.16 in 10.0 mi SSW 6.9 mph - N/A   Clear
1:52 PM 69.8 °F - 46.4 °F 43% 30.16 in 10.0 mi SSW 10.4 mph - N/A   Clear
2:13 PM 69.8 °F - 46.4 °F 43% 30.16 in 10.0 mi SSW 6.9 mph - N/A   Clear
2:33 PM 71.6 °F - 46.4 °F 41% 30.15 in 10.0 mi South 11.5 mph 16.1 mph N/A   Clear
2:52 PM 69.8 °F - 46.4 °F 43% 30.15 in 10.0 mi SSW 8.1 mph - N/A   Clear
3:13 PM 71.6 °F - 46.4 °F 41% 30.15 in 10.0 mi WSW 8.1 mph - N/A   Clear
3:33 PM 71.6 °F - 46.4 °F 41% 30.15 in 10.0 mi SW 8.1 mph - N/A   Clear
3:52 PM 71.6 °F - 46.4 °F 41% 30.15 in 10.0 mi SSW 9.2 mph - N/A   Clear
4:13 PM 71.6 °F - 46.4 °F 41% 30.14 in 10.0 mi SSW 8.1 mph - N/A   Clear
4:33 PM 71.6 °F - 46.4 °F 41% 30.14 in 10.0 mi SSW 6.9 mph - N/A   Clear
4:52 PM 71.6 °F - 46.4 °F 41% 30.14 in 10.0 mi WSW 6.9 mph - N/A   Clear
5:13 PM 71.6 °F - 46.4 °F 41% 30.14 in 10.0 mi SW 8.1 mph - N/A   Clear
5:32 PM 69.8 °F - 46.4 °F 43% 30.14 in 10.0 mi SW 5.8 mph - N/A   Clear
5:53 PM 69.8 °F - 48.2 °F 46% 30.14 in 10.0 mi WSW 8.1 mph - N/A   Clear
6:13 PM 69.8 °F - 48.2 °F 46% 30.14 in 10.0 mi SSW 6.9 mph - N/A   Clear
6:33 PM 68.0 °F - 48.2 °F 49% 30.14 in 10.0 mi SSW 6.9 mph - N/A   Clear
6:52 PM 66.2 °F - 48.2 °F 52% 30.15 in 10.0 mi SSW 5.8 mph - N/A   Clear
7:13 PM 66.2 °F - 48.2 °F 52% 30.15 in 10.0 mi SSW 4.6 mph - N/A   Clear
7:32 PM 64.4 °F - 48.2 °F 56% 30.15 in 10.0 mi South 3.5 mph - N/A   Clear
7:52 PM 62.6 °F - 48.2 °F 59% 30.15 in 10.0 mi South 3.5 mph - N/A   Clear
8:13 PM 60.8 °F - 48.2 °F 63% 30.16 in 10.0 mi South 3.5 mph - N/A   Clear
8:33 PM 60.8 °F - 50.0 °F 68% 30.16 in 10.0 mi South 3.5 mph - N/A   Clear
8:52 PM 60.8 °F - 48.2 °F 63% 30.17 in 10.0 mi South 3.5 mph - N/A   Clear
9:13 PM 59.0 °F - 48.2 °F 67% 30.17 in 10.0 mi South 3.5 mph - N/A   Clear
9:33 PM 57.2 °F - 48.2 °F 72% 30.18 in 10.0 mi South 3.5 mph - N/A   Clear
9:52 PM 57.2 °F - 48.2 °F 72% 30.19 in 10.0 mi Calm Calm - N/A   Clear
10:13 PM 55.4 °F - 48.2 °F 77% 30.19 in 10.0 mi Calm Calm - N/A   Clear
10:33 PM 51.8 °F - 48.2 °F 88% 30.20 in 10.0 mi Calm Calm - N/A   Clear
10:53 PM 51.8 °F - 46.4 °F 82% 30.20 in 10.0 mi Calm Calm - N/A   Clear
11:12 PM 50.0 °F - 46.4 °F 87% 30.21 in 10.0 mi Calm Calm - N/A   Clear
11:33 PM 48.2 °F - 46.4 °F 93% 30.21 in 10.0 mi Calm Calm - N/A   Clear
11:53 PM 46.4 °F - 44.6 °F 93% 30.21 in 10.0 mi Calm Calm - N/A   Clear